| time (UTC) | temp F | wind direction | speed MPH | gust MPH | rain 1hr in | rain 24hr in | rain mn in | humidity % | barometer mb |
| 20260505031534 | 43 | 0 | 0.0 | 2.0 | 0.00 | 0.00 | 0.00 | 54 | 1003.5 |
| 20260505031017 | 43 | 288 | 0.0 | 3.0 | 0.00 | 0.00 | 0.00 | 54 | 1003.5 |
| 20260505030515 | 43 | 288 | 0.0 | 3.0 | 0.00 | 0.00 | 0.00 | 54 | 1003.5 |
| 20260505030032 | 43 | 288 | 1.0 | 2.0 | 0.00 | 0.00 | 0.00 | 54 | 1003.3 |
| 20260505025518 | 43 | 288 | 0.0 | 3.0 | 0.00 | 0.00 | 0.00 | 53 | 1003.2 |
| 20260505025016 | 44 | 288 | 1.0 | 3.0 | 0.00 | 0.00 | 0.00 | 53 | 1003.2 |
| 20260505024533 | 44 | 288 | 0.0 | 3.0 | 0.00 | 0.00 | 0.00 | 52 | 1003.2 |
| 20260505024018 | 44 | 288 | 1.0 | 3.0 | 0.00 | 0.00 | 0.00 | 52 | 1003.2 |
| 20260505023515 | 44 | 288 | 1.0 | 4.0 | 0.00 | 0.00 | 0.00 | 52 | 1003.0 |
| 20260505023031 | 44 | 288 | 1.0 | 4.0 | 0.00 | 0.00 | 0.00 | 51 | 1003.0 |
| 20260505022515 | 45 | 294 | 1.0 | 3.0 | 0.00 | 0.00 | 0.00 | 51 | 1002.9 |
| 20260505022016 | 45 | 308 | 1.0 | 3.0 | 0.00 | 0.00 | 0.00 | 50 | 1002.8 |
| 20260505021532 | 45 | 302 | 1.0 | 4.0 | 0.00 | 0.00 | 0.00 | 50 | 1002.7 |
| 20260505021015 | 45 | 290 | 1.0 | 4.0 | 0.00 | 0.00 | 0.00 | 49 | 1002.7 |
| 20260505020515 | 46 | 299 | 1.0 | 5.0 | 0.00 | 0.00 | 0.00 | 49 | 1002.6 |
| 20260505020034 | 46 | 297 | 2.0 | 5.0 | 0.00 | 0.00 | 0.00 | 48 | 1002.6 |
| 20260505015515 | 46 | 313 | 1.0 | 4.0 | 0.00 | 0.00 | 0.00 | 49 | 1002.4 |
| 20260505015014 | 46 | 317 | 1.0 | 4.0 | 0.00 | 0.00 | 0.00 | 48 | 1002.3 |
| 20260505014535 | 46 | 319 | 1.0 | 6.0 | 0.00 | 0.00 | 0.00 | 48 | 1002.3 |
| 20260505014016 | 46 | 286 | 3.0 | 6.0 | 0.00 | 0.00 | 0.00 | 48 | 1002.1 |
| 20260505013514 | 46 | 303 | 2.0 | 5.0 | 0.00 | 0.00 | 0.00 | 48 | 1002.2 |
| 20260505013033 | 47 | 311 | 2.0 | 4.0 | 0.00 | 0.00 | 0.00 | 48 | 1002.1 |
| 20260505012515 | 47 | 293 | 2.0 | 5.0 | 0.00 | 0.00 | 0.00 | 48 | 1002.1 |
| 20260505012015 | 47 | 291 | 2.0 | 7.0 | 0.00 | 0.00 | 0.00 | 47 | 1002.1 |
| 20260505011553 | 47 | 294 | 3.0 | 7.0 | 0.00 | 0.00 | 0.00 | 46 | 1002.1 |
| 20260505011015 | 48 | 291 | 1.0 | 8.0 | 0.00 | 0.00 | 0.00 | 46 | 1001.9 |
| 20260505010519 | 48 | 315 | 2.0 | 8.0 | 0.00 | 0.00 | 0.00 | 46 | 1001.9 |
| 20260505010033 | 48 | 345 | 3.0 | 7.0 | 0.00 | 0.00 | 0.00 | 45 | 1001.9 |
| 20260505005518 | 48 | 336 | 2.0 | 10.0 | 0.00 | 0.00 | 0.00 | 45 | 1001.7 |
| 20260505005016 | 48 | 318 | 5.0 | 10.0 | 0.00 | 0.00 | 0.00 | 44 | 1001.5 |
| 20260505004530 | 48 | 360 | 3.0 | 10.0 | 0.00 | 0.00 | 0.00 | 44 | 1001.6 |
| 20260505004015 | 48 | 329 | 4.0 | 8.0 | 0.00 | 0.00 | 0.00 | 43 | 1001.6 |
| 20260505003518 | 48 | 331 | 2.0 | 7.0 | 0.00 | 0.00 | 0.00 | 43 | 1001.6 |
| 20260505003033 | 48 | 292 | 4.0 | 7.0 | 0.00 | 0.00 | 0.00 | 42 | 1001.7 |
| 20260505002515 | 48 | 287 | 3.0 | 7.0 | 0.00 | 0.00 | 0.00 | 43 | 1001.4 |
| 20260505002019 | 49 | 319 | 3.0 | 7.0 | 0.00 | 0.00 | 0.00 | 42 | 1001.6 |
| 20260505001532 | 49 | 296 | 3.0 | 7.0 | 0.00 | 0.00 | 0.00 | 42 | 1001.4 |
| 20260505001017 | 49 | 302 | 3.0 | 7.0 | 0.00 | 0.00 | 0.00 | 42 | 1001.6 |
| 20260505000516 | 49 | 343 | 3.0 | 9.0 | 0.00 | 0.00 | 0.00 | 45 | 1001.4 |
| 20260505000038 | 49 | 310 | 3.0 | 9.0 | 0.00 | 0.00 | 0.00 | 42 | 1001.4 |
| 20260504235515 | 49 | 325 | 2.0 | 8.0 | 0.00 | 0.00 | 0.00 | 45 | 1001.4 |
| 20260504235015 | 48 | 99 | 2.0 | 7.0 | 0.00 | 0.00 | 0.00 | 43 | 1001.6 |
| 20260504234532 | 49 | 355 | 3.0 | 10.0 | 0.00 | 0.00 | 0.00 | 42 | 1001.6 |
| 20260504234016 | 49 | 284 | 4.0 | 10.0 | 0.00 | 0.00 | 0.00 | 43 | 1001.6 |
| 20260504233515 | 49 | 306 | 3.0 | 8.0 | 0.00 | 0.00 | 0.00 | 43 | 1001.7 |
| 20260504233040 | 49 | 320 | 2.0 | 8.0 | 0.00 | 0.00 | 0.00 | 44 | 1001.7 |
| 20260504232515 | 49 | 289 | 1.0 | 7.0 | 0.00 | 0.00 | 0.00 | 46 | 1001.7 |
| 20260504232015 | 48 | 313 | 2.0 | 7.0 | 0.00 | 0.00 | 0.00 | 46 | 1001.8 |
| 20260504231533 | 48 | 281 | 3.0 | 8.0 | 0.00 | 0.00 | 0.00 | 46 | 1001.8 |
| 20260504231014 | 48 | 311 | 4.0 | 11.0 | 0.00 | 0.00 | 0.00 | 46 | 1001.7 |
| 20260504230515 | 48 | 329 | 2.0 | 11.0 | 0.00 | 0.00 | 0.00 | 47 | 1001.6 |
| 20260504230033 | 49 | 290 | 4.0 | 10.0 | 0.00 | 0.00 | 0.00 | 45 | 1001.5 |
| 20260504225515 | 49 | 293 | 4.0 | 10.0 | 0.00 | 0.00 | 0.00 | 45 | 1001.5 |
| 20260504225013 | 49 | 48 | 4.0 | 12.0 | 0.00 | 0.00 | 0.00 | 44 | 1001.3 |
| 20260504224538 | 50 | 288 | 6.0 | 12.0 | 0.00 | 0.00 | 0.00 | 44 | 1001.4 |
| 20260504224015 | 50 | 288 | 4.0 | 12.0 | 0.00 | 0.00 | 0.00 | 45 | 1001.3 |
| 20260504223516 | 51 | 288 | 4.0 | 13.0 | 0.00 | 0.00 | 0.00 | 45 | 1001.2 |
| 20260504223030 | 50 | 321 | 4.0 | 13.0 | 0.00 | 0.00 | 0.00 | 45 | 1001.1 |
| 20260504222514 | 50 | 329 | 5.0 | 13.0 | 0.00 | 0.00 | 0.00 | 45 | 1001.0 |
| 20260504222021 | 51 | 327 | 4.0 | 10.0 | 0.00 | 0.00 | 0.00 | 45 | 1001.0 |
| 20260504221534 | 51 | 296 | 3.0 | 10.0 | 0.00 | 0.00 | 0.00 | 46 | 1000.8 |
| 20260504221017 | 51 | 325 | 3.0 | 9.0 | 0.00 | 0.00 | 0.00 | 46 | 1000.6 |
| 20260504220514 | 51 | 279 | 4.0 | 9.0 | 0.00 | 0.00 | 0.00 | 44 | 1000.7 |
| 20260504220034 | 51 | 294 | 4.0 | 10.0 | 0.00 | 0.00 | 0.00 | 43 | 1000.6 |
| 20260504215515 | 51 | 324 | 5.0 | 11.0 | 0.00 | 0.00 | 0.00 | 43 | 1000.5 |
| 20260504215015 | 51 | 293 | 4.0 | 11.0 | 0.00 | 0.00 | 0.00 | 44 | 1000.6 |
| 20260504214534 | 51 | 305 | 4.0 | 10.0 | 0.00 | 0.00 | 0.00 | 44 | 1000.5 |
| 20260504214015 | 51 | 302 | 3.0 | 9.0 | 0.00 | 0.00 | 0.00 | 44 | 1000.4 |
| 20260504213514 | 51 | 269 | 4.0 | 11.0 | 0.00 | 0.00 | 0.00 | 44 | 1000.3 |
| 20260504213034 | 51 | 352 | 4.0 | 11.0 | 0.00 | 0.00 | 0.00 | 46 | 1000.5 |
| 20260504212521 | 51 | 350 | 5.0 | 11.0 | 0.00 | 0.00 | 0.00 | 45 | 1000.3 |
| 20260504212016 | 51 | 300 | 5.0 | 13.0 | 0.00 | 0.00 | 0.00 | 45 | 1000.1 |
| 20260504211532 | 51 | 321 | 5.0 | 13.0 | 0.00 | 0.00 | 0.00 | 45 | 1000.2 |
| 20260504211015 | 51 | 282 | 4.0 | 10.0 | 0.00 | 0.00 | 0.00 | 46 | 1000.3 |
| 20260504210515 | 51 | 294 | 5.0 | 11.0 | 0.00 | 0.00 | 0.00 | 45 | 1000.2 |
| 20260504210032 | 52 | 271 | 5.0 | 12.0 | 0.00 | 0.00 | 0.00 | 44 | 1000.1 |
| 20260504205515 | 52 | 294 | 5.0 | 12.0 | 0.00 | 0.00 | 0.00 | 43 | 1000.0 |
| 20260504205014 | 52 | 290 | 6.0 | 12.0 | 0.00 | 0.00 | 0.00 | 43 | 1000.0 |
| 20260504204531 | 53 | 279 | 4.0 | 11.0 | 0.00 | 0.00 | 0.00 | 44 | 999.8 |
| 20260504204015 | 53 | 280 | 4.0 | 9.0 | 0.00 | 0.00 | 0.00 | 42 | 999.9 |
| 20260504203514 | 54 | 267 | 4.0 | 10.0 | 0.00 | 0.00 | 0.00 | 42 | 1000.0 |
| 20260504203031 | 53 | 342 | 4.0 | 10.0 | 0.00 | 0.00 | 0.00 | 44 | 999.6 |
| 20260504202516 | 54 | 260 | 4.0 | 12.0 | 0.00 | 0.00 | 0.00 | 43 | 999.8 |
| 20260504202013 | 54 | 301 | 5.0 | 12.0 | 0.00 | 0.00 | 0.00 | 42 | 999.8 |
| 20260504201532 | 55 | 313 | 3.0 | 12.0 | 0.00 | 0.00 | 0.00 | 42 | 999.7 |
| 20260504201015 | 55 | 290 | 6.0 | 13.0 | 0.00 | 0.00 | 0.00 | 42 | 999.7 |
| 20260504200515 | 55 | 334 | 6.0 | 13.0 | 0.00 | 0.00 | 0.00 | 42 | 999.7 |
| 20260504200032 | 55 | 309 | 3.0 | 16.0 | 0.00 | 0.00 | 0.00 | 44 | 999.5 |
| 20260504195514 | 54 | 321 | 5.0 | 16.0 | 0.00 | 0.00 | 0.00 | 45 | 999.6 |
| 20260504195015 | 54 | 294 | 4.0 | 13.0 | 0.00 | 0.00 | 0.00 | 44 | 999.6 |
| 20260504194534 | 54 | 288 | 4.0 | 12.0 | 0.00 | 0.00 | 0.00 | 42 | 999.6 |
| 20260504194015 | 54 | 304 | 3.0 | 12.0 | 0.00 | 0.00 | 0.00 | 43 | 999.5 |
| 20260504193515 | 54 | 282 | 6.0 | 12.0 | 0.00 | 0.00 | 0.00 | 45 | 999.3 |
| 20260504193034 | 54 | 296 | 3.0 | 11.0 | 0.00 | 0.00 | 0.00 | 45 | 999.4 |
| 20260504192515 | 54 | 284 | 4.0 | 14.0 | 0.00 | 0.00 | 0.00 | 44 | 999.3 |
| 20260504192019 | 54 | 317 | 6.0 | 14.0 | 0.00 | 0.00 | 0.00 | 43 | 999.3 |
| 20260504191531 | 55 | 315 | 5.0 | 12.0 | 0.00 | 0.00 | 0.00 | 43 | 999.1 |
| 20260504191012 | 55 | 337 | 5.0 | 9.0 | 0.00 | 0.00 | 0.00 | 44 | 999.1 |
| 20260504190513 | 55 | 302 | 3.0 | 12.0 | 0.00 | 0.00 | 0.00 | 43 | 999.0 |
| 20260504190030 | 55 | 286 | 5.0 | 12.0 | 0.00 | 0.00 | 0.00 | 45 | 999.0 |
| 20260504185514 | 55 | 51 | 4.0 | 11.0 | 0.00 | 0.00 | 0.00 | 45 | 998.8 |
| 20260504185012 | 55 | 312 | 5.0 | 11.0 | 0.00 | 0.00 | 0.00 | 46 | 998.9 |
| 20260504184530 | 55 | 334 | 4.0 | 11.0 | 0.00 | 0.00 | 0.00 | 44 | 999.1 |
| 20260504184016 | 55 | 257 | 4.0 | 11.0 | 0.00 | 0.00 | 0.00 | 45 | 998.7 |
| 20260504183513 | 55 | 284 | 3.0 | 15.0 | 0.00 | 0.00 | 0.00 | 46 | 998.8 |
| 20260504183033 | 55 | 272 | 6.0 | 18.0 | 0.00 | 0.00 | 0.00 | 45 | 998.7 |
| 20260504182513 | 55 | 270 | 6.0 | 18.0 | 0.00 | 0.00 | 0.00 | 45 | 998.6 |
| 20260504182015 | 55 | 317 | 5.0 | 14.0 | 0.00 | 0.00 | 0.00 | 45 | 998.4 |
| 20260504181531 | 55 | 283 | 4.0 | 12.0 | 0.00 | 0.00 | 0.00 | 46 | 998.4 |
| 20260504181016 | 55 | 307 | 5.0 | 12.0 | 0.00 | 0.00 | 0.00 | 47 | 998.3 |
| 20260504180515 | 55 | 348 | 3.0 | 12.0 | 0.00 | 0.00 | 0.00 | 46 | 998.3 |
| 20260504180033 | 55 | 279 | 4.0 | 12.0 | 0.00 | 0.00 | 0.00 | 46 | 998.2 |
| 20260504175517 | 56 | 331 | 7.0 | 14.0 | 0.00 | 0.00 | 0.00 | 45 | 998.1 |
| 20260504175017 | 56 | 306 | 5.0 | 14.0 | 0.00 | 0.00 | 0.00 | 45 | 998.0 |
| 20260504174532 | 55 | 298 | 5.0 | 12.0 | 0.00 | 0.00 | 0.00 | 48 | 997.8 |
| 20260504174014 | 55 | 299 | 5.0 | 14.0 | 0.00 | 0.00 | 0.00 | 47 | 998.0 |
| 20260504173512 | 55 | 350 | 5.0 | 14.0 | 0.00 | 0.00 | 0.00 | 47 | 997.9 |
| 20260504173034 | 55 | 277 | 3.0 | 13.0 | 0.00 | 0.00 | 0.00 | 49 | 997.9 |
| 20260504172514 | 55 | 317 | 5.0 | 13.0 | 0.00 | 0.00 | 0.00 | 48 | 997.8 |
| 20260504172016 | 55 | 280 | 3.0 | 13.0 | 0.00 | 0.00 | 0.00 | 47 | 997.7 |
| 20260504171544 | 55 | 308 | 6.0 | 13.0 | 0.00 | 0.00 | 0.00 | 47 | 997.8 |
| 20260504171013 | 55 | 270 | 5.0 | 13.0 | 0.00 | 0.00 | 0.00 | 47 | 997.9 |
| 20260504170513 | 55 | 280 | 5.0 | 13.0 | 0.00 | 0.00 | 0.00 | 47 | 997.7 |
| 20260504151013 | 55 | 317 | 7.0 | 17.0 | 0.00 | 0.00 | 0.00 | 45 | 996.2 |
| 20260504150513 | 55 | 315 | 4.0 | 13.0 | 0.00 | 0.00 | 0.00 | 47 | 996.0 |
| 20260504141013 | 54 | 295 | 5.0 | 10.0 | 0.00 | 0.00 | 0.00 | 58 | 995.6 |
| 20260504140514 | 54 | 240 | 5.0 | 13.0 | 0.00 | 0.00 | 0.00 | 58 | 995.8 |
| 20260504130512 | 53 | 300 | 3.0 | 9.0 | 0.00 | 0.00 | 0.00 | 61 | 995.5 |
| 20260504110511 | 55 | 296 | 3.0 | 8.0 | 0.00 | 0.00 | 0.00 | 59 | 993.7 |
| 20260504100514 | 57 | 273 | 8.0 | 16.0 | 0.00 | 0.00 | 0.00 | 50 | 992.3 |
| 20260504081534 | 57 | 246 | 9.0 | 13.0 | 0.00 | 0.00 | 0.00 | 45 | 993.0 |
| 20260504081017 | 57 | 238 | 8.0 | 13.0 | 0.00 | 0.00 | 0.00 | 45 | 993.0 |
| 20260504080515 | 57 | 244 | 8.0 | 13.0 | 0.00 | 0.00 | 0.00 | 45 | 993.2 |
| 20260504050516 | 56 | 243 | 7.0 | 11.0 | 0.00 | 0.00 | 0.00 | 46 | 996.7 |
| 20260504045514 | 56 | 232 | 8.0 | 12.0 | 0.00 | 0.00 | 0.00 | 46 | 997.0 |
| 20260504045013 | 56 | 254 | 6.0 | 10.0 | 0.00 | 0.00 | 0.00 | 46 | 997.1 |
| 20260504044533 | 56 | 247 | 6.0 | 10.0 | 0.00 | 0.00 | 0.00 | 46 | 997.2 |
| 20260504044015 | 56 | 252 | 4.0 | 9.0 | 0.00 | 0.00 | 0.00 | 48 | 997.3 |
| 20260504043515 | 56 | 242 | 5.0 | 9.0 | 0.00 | 0.00 | 0.00 | 49 | 997.4 |
| 20260504043043 | 56 | 238 | 4.0 | 8.0 | 0.00 | 0.00 | 0.00 | 50 | 997.5 |
| 20260504042515 | 55 | 223 | 3.0 | 7.0 | 0.00 | 0.00 | 0.00 | 51 | 997.6 |
| 20260504042012 | 54 | 232 | 2.0 | 5.0 | 0.00 | 0.00 | 0.00 | 53 | 997.6 |
| 20260504041536 | 54 | 246 | 1.0 | 4.0 | 0.00 | 0.00 | 0.00 | 55 | 998.0 |
| 20260504041014 | 53 | 244 | 1.0 | 3.0 | 0.00 | 0.00 | 0.00 | 55 | 998.1 |
| 20260504040512 | 52 | 267 | 0.0 | 1.0 | 0.00 | 0.00 | 0.00 | 55 | 998.1 |
| 20260504040032 | 52 | 267 | 0.0 | 0.0 | 0.00 | 0.00 | 0.00 | 56 | 998.2 |
| 20260504035511 | 53 | 0 | 0.0 | 0.0 | 0.00 | 0.00 | 0.00 | 57 | 998.5 |
| 20260504035014 | 52 | 0 | 0.0 | 2.0 | 0.00 | 0.00 | 0.00 | 59 | 998.6 |
| 20260504034534 | 52 | 0 | 0.0 | 2.0 | 0.00 | 0.00 | 0.00 | 53 | 998.7 |
| 20260504034018 | 51 | 267 | 1.0 | 2.0 | 0.00 | 0.00 | 0.00 | 54 | 998.8 |
| 20260504033513 | 50 | 0 | 0.0 | 2.0 | 0.00 | 0.00 | 0.00 | 57 | 998.9 |
| 20260504033034 | 50 | 0 | 0.0 | 2.0 | 0.00 | 0.00 | 0.00 | 61 | 999.0 |
| 20260504032514 | 50 | 0 | 0.0 | 2.0 | 0.00 | 0.00 | 0.00 | 72 | 999.0 |
| 20260504032015 | 51 | 266 | 0.0 | 2.0 | 0.00 | 0.00 | 0.00 | 70 | 999.3 |